FW7500 Weather Reports


Display with metric or nautical units.
time (UTC)temp
F
wind
direction
speed
MPH
gust
MPH
rain 1hr
in
rain 24hr
in
rain mn
in
humidity
%
barometer
mb
20260505230058 60 0 0.0 2.0 0.00 0.22 0.22 92 1008.1
20260505224555 60 347 0.0 3.0 0.00 0.22 0.22 92 1008.3
20260505223053 60 143 2.0 4.0 0.01 0.22 0.22 92 1008.5
20260505221553 60 201 2.0 5.0 0.02 0.22 0.22 91 1008.8
20260505220051 60 166 3.0 6.0 0.04 0.22 0.22 91 1009.0
20260505214543 61 360 5.0 13.0 0.05 0.21 0.21 91 1009.2
20260505213058 61 193 7.0 12.0 0.08 0.21 0.21 91 1009.5
20260505211551 61 360 5.0 10.0 0.16 0.20 0.20 92 1009.5
20260505210048 61 360 4.0 10.0 0.18 0.18 0.18 92 1009.6
20260505204556 61 360 3.0 6.0 0.16 0.16 0.16 92 1009.6
20260505203042 61 254 4.0 8.0 0.13 0.13 0.13 91 1009.8
20260505201551 62 317 8.0 15.0 0.04 0.04 0.04 87 1009.7
20260505200048 68 360 7.0 15.0 0.00 0.00 0.00 66 1009.2
20260505194548 69 360 9.0 19.0 0.00 0.00 0.00 65 1009.2
20260505193047 69 360 8.0 14.0 0.00 0.00 0.00 65 1009.2
20260505191608 69 360 9.0 25.0 0.00 0.00 0.00 64 1009.5
20260505190048 69 360 8.0 18.0 0.00 0.00 0.00 65 1009.4
20260505184552 69 200 12.0 23.0 0.00 0.00 0.00 65 1009.4
20260505183045 68 360 10.0 19.0 0.00 0.00 0.00 65 1009.8
20260505181548 69 360 10.0 18.0 0.00 0.00 0.00 65 1010.1
20260505174601 68 184 9.0 15.0 0.00 0.00 0.00 66 1010.0
20260505173049 68 360 11.0 25.0 0.00 0.00 0.00 65 1010.3
20260505171549 68 360 15.0 23.0 0.00 0.00 0.00 64 1010.6
20260505170049 68 360 11.0 19.0 0.00 0.00 0.00 64 1010.6
20260505164549 68 360 7.0 20.0 0.00 0.00 0.00 65 1010.7
20260505163050 68 360 7.0 20.0 0.00 0.00 0.00 65 1010.7
20260505161554 67 360 8.0 20.0 0.00 0.00 0.00 65 1010.8
20260505153053 66 360 10.0 17.0 0.00 0.00 0.00 64 1010.7
20260505151553 66 360 9.0 17.0 0.00 0.00 0.00 66 1010.3
20260505124549 60 191 7.0 12.0 0.00 0.00 0.00 82 1010.6
20260505123047 59 360 6.0 11.0 0.00 0.00 0.00 83 1010.6
20260505121549 59 360 5.0 9.0 0.00 0.00 0.00 84 1010.5
20260505120048 59 360 5.0 8.0 0.00 0.00 0.00 84 1010.8
20260505114555 59 360 3.0 7.0 0.00 0.00 0.00 84 1010.9
20260505113052 59 360 3.0 7.0 0.00 0.00 0.00 84 1010.8
20260505111555 59 360 3.0 7.0 0.00 0.00 0.00 83 1010.8
20260505101605 62 360 8.0 14.0 0.00 0.01 0.00 70 1010.8
20260505094551 64 270 5.0 15.0 0.00 0.01 0.00 62 1010.0
20260505093102 64 360 8.0 14.0 0.00 0.01 0.00 61 1009.4
20260505091549 64 360 9.0 14.0 0.00 0.01 0.00 61 1009.2
20260505090055 64 360 6.0 16.0 0.00 0.01 0.00 61 1008.8
20260505084550 64 360 7.0 16.0 0.00 0.01 0.00 61 1008.7
20260505083051 64 360 7.0 15.0 0.00 0.01 0.00 61 1008.5
20260505081604 64 360 8.0 18.0 0.00 0.01 0.00 61 1008.2
20260505080057 64 360 7.0 14.0 0.00 0.01 0.00 61 1008.2
20260505074548 64 360 7.0 14.0 0.00 0.01 0.00 62 1008.1
20260505073049 64 360 9.0 17.0 0.00 0.01 0.00 61 1007.9
20260505071554 64 360 7.0 16.0 0.00 0.01 0.00 61 1007.9
20260505070052 64 360 8.0 16.0 0.00 0.01 0.00 61 1008.2
20260505064546 64 360 8.0 15.0 0.00 0.01 0.00 61 1008.3
20260505063051 64 360 10.0 15.0 0.00 0.01 0.00 61 1008.2
20260505061546 64 360 7.0 15.0 0.00 0.01 0.00 62 1008.1
20260505060048 64 360 8.0 17.0 0.00 0.01 0.00 62 1008.0
20260505054549 64 360 7.0 14.0 0.00 0.01 0.00 64 1007.9
20260505053049 64 360 7.0 13.0 0.00 0.01 0.00 64 1008.0
20260505051549 64 360 5.0 11.0 0.00 0.01 0.00 64 1008.0
20260505041549 65 360 7.0 12.0 0.00 0.01 0.00 63 1008.2
20260505040050 65 360 5.0 10.0 0.00 0.01 0.00 64 1008.5
20260505034552 65 360 6.0 12.0 0.00 0.01 0.01 64 1008.5
20260505033053 65 360 5.0 10.0 0.00 0.01 0.01 64 1008.2
20260505031552 65 360 5.0 9.0 0.00 0.01 0.01 65 1008.2
20260505030049 65 360 4.0 6.0 0.00 0.01 0.01 65 1008.1
20260505024555 65 360 4.0 7.0 0.00 0.01 0.01 64 1008.0
20260505023052 66 360 3.0 5.0 0.00 0.01 0.01 63 1007.9
20260505021546 66 360 3.0 6.0 0.00 0.01 0.01 62 1007.5
20260505020051 67 360 4.0 8.0 0.00 0.01 0.01 61 1007.2
20260505014552 67 360 3.0 7.0 0.00 0.01 0.01 59 1007.0
20260505013056 68 360 3.0 8.0 0.00 0.01 0.01 58 1007.0
20260505011553 68 360 3.0 6.0 0.00 0.01 0.01 56 1006.8
20260505010109 69 201 3.0 6.0 0.00 0.01 0.01 55 1006.9
20260505004547 70 360 3.0 6.0 0.00 0.01 0.01 54 1006.8
20260505003053 70 360 4.0 8.0 0.00 0.01 0.01 54 1007.0
20260505001549 71 360 4.0 11.0 0.00 0.01 0.01 53 1007.1
20260505000050 72 360 4.0 8.0 0.00 0.01 0.01 53 1007.2
20260504234552 73 360 5.0 9.0 0.00 0.01 0.01 50 1007.2
20260504233052 73 360 5.0 12.0 0.00 0.01 0.01 49 1007.3
20260504231557 74 264 9.0 16.0 0.00 0.01 0.01 47 1007.6